#timestamp,LO_Frequency,Hit,StdDev 
1552791615.5,286047002.8,N
1552791635.3,286047002.1,N
1552791655.1,286047002.0,N
1552791675.9,286047002.5,N
1552791695.7,286047001.6,N
1552791715.5,286047001.8,N
1552791735.4,286047004.3,N
1552791755.2,286047002.6,N
1552791775.1,286047000.9,N
1552791776.0,286047000.9,N
1552791795.8,286046998.4,N
1552791815.6,286047000.5,N
1552791835.5,286047001.1,N
1552791855.3,286047002.3,N
1552791875.1,286047001.0,N
1552791895.9,286047000.4,N
1552791915.7,286046999.8,N
1552791935.6,286047002.6,N
1552791955.4,286047001.6,N
1552791975.2,286047002.5,N
1552791995.1,286047002.4,N
1552791996.0,286047002.4,N
1552792015.8,286046999.7,N
1552792035.7,286047002.5,N
1552792055.5,286047002.0,N
1552792075.3,286047004.1,N
1552792095.2,286047001.3,N
1552792115.0,286047003.2,N
1552792115.9,286047003.2,N
1552792135.7,286047003.8,N
1552792155.6,286047002.4,N
1552792175.4,286047000.0,N
1552792195.3,286047000.0,N
1552792215.1,286046999.1,N
1552792235.8,286046999.6,N
1552792255.7,286047001.0,N
1552792275.5,286047002.7,N
1552792295.4,286047002.4,N
1552792315.2,286047000.6,N
1552792335.0,286047000.4,N
1552792335.9,286047000.4,N
1552792355.8,286046998.2,N
1552792375.6,286046998.6,N
1552792395.5,286047001.2,N
1552792415.3,286046999.9,N
1552792435.1,286047002.5,N
1552792455.9,286047001.3,N
1552792475.7,286047002.0,N
1552792495.5,286046998.1,N
1552792515.4,286046998.2,N
1552792535.2,286047001.1,N
1552792555.1,286046998.1,N
1552792556.0,286046998.1,N
1552792575.8,286046998.1,N
1552792595.6,286047001.0,N
1552792615.5,286047002.3,N
1552792635.3,286046999.9,N
1552792655.2,286047002.0,N
1552792675.9,286047003.8,N
1552792695.7,286047004.1,N
1552792715.6,286047003.6,N
1552792735.4,286047004.1,N
1552792755.3,286047005.5,N
1552792775.1,286047002.9,N
1552792776.0,286047002.9,N
1552792795.8,286047003.8,N
1552792815.7,286047003.6,N
1552792835.5,286047001.4,N
1552792855.3,286047001.8,N
1552792875.2,286047002.0,N
1552792895.0,286047001.6,N
1552792895.9,286047001.6,N
1552792915.8,286047001.4,N
1552792935.6,286047001.3,N
1552792955.4,286047003.2,N
1552792975.3,286047004.2,N
1552792995.1,286047003.7,N
1552793015.8,286047001.7,N
1552793035.7,286046998.1,N
1552793055.5,286046998.8,N
1552793075.4,286046998.9,N
1552793095.2,286047001.0,N
1552793115.0,286047000.1,N
1552793115.9,286047000.1,N
1552793135.8,286046999.7,N
1552793155.6,286047000.1,N
1552793175.5,286047001.0,N
1552793195.3,286046998.1,N
1552793215.1,286046998.2,N
1552793235.9,286047002.6,N
1552793255.7,286047001.4,N
1552793275.5,286047004.1,N
1552793295.4,286047002.5,N
1552793315.2,286047001.4,N
1552793335.1,286047002.3,N
1552793336.0,286047002.3,N
1552793355.8,286047002.5,N
1552793375.6,286047000.2,N
1552793395.5,286046999.7,N
1552793415.3,286047002.0,N
1552793435.1,286046998.5,N
1552793455.9,286047000.8,N
1552793475.7,286047000.9,N
1552793495.6,286047000.6,N
1552793515.4,286047000.9,N
1552793535.2,286047000.5,N
1552793555.1,286046999.9,N
1552793556.0,286046999.9,N
1552793575.8,286047001.9,N
1552793595.6,286046999.8,N
1552793615.5,286047002.3,N
1552793635.3,286047002.1,N
1552793655.1,286047003.9,N
1552793675.9,286047003.6,N
1552793695.7,286047003.5,N
1552793715.6,286047004.3,N
1552793735.4,286047001.5,N
1552793755.2,286047004.4,N
1552793775.1,286047004.1,N
1552793776.0,286047004.1,N
1552793795.8,286047003.3,N
1552793815.7,286047005.8,Y
1552793835.5,286047002.2,P
1552793855.3,286047002.8,P
1552793875.2,286047004.3,P
1552793895.0,286047000.0,N
1552793895.9,286047000.0,N
1552793915.7,286047001.6,N
1552793935.6,286047002.8,N
1552793955.4,286047000.3,N
1552793975.3,286046998.6,N
1552793995.1,286046998.8,N
1552793996.0,286046998.8,N
1552794015.8,286046998.4,N
1552794035.7,286046999.8,N
1552794055.5,286046999.8,N
1552794075.3,286047002.2,N
1552794095.2,286047002.8,N
1552794115.0,286047003.8,N
1552794115.9,286047003.8,N
1552794135.8,286047004.0,N
1552794155.6,286047005.5,N
1552794175.4,286047006.0,N
1552794195.3,286047003.3,N
1552794215.1,286047005.8,N
1552794235.8,286047004.8,N
1552794255.7,286047005.9,N
1552794275.5,286047002.5,N
1552794295.3,286047000.2,N
1552794315.2,286047001.4,N
1552794335.0,286047004.1,N
1552794335.9,286047004.1,N
1552794355.8,286047002.2,N
1552794375.6,286047002.1,N
1552794395.4,286047004.0,N
1552794415.3,286047004.0,N
1552794435.1,286047003.0,N
1552794455.8,286047003.5,N
1552794475.7,286047004.2,N
1552794495.5,286047002.4,N
1552794515.4,286047000.5,N
1552794535.2,286047000.7,N
1552794555.0,286047000.8,N
1552794555.9,286047000.8,N
1552794575.8,286047000.3,N
1552794595.6,286047000.4,N
1552794615.4,286047000.9,N
1552794635.3,286046999.0,N
1552794655.1,286046998.6,N
1552794675.9,286047001.1,N
1552794725.7,286047002.4,E
1552794735.7,286047000.3,N
1552794755.5,286047002.8,P
1552794775.3,286047000.0,N
1552794795.2,286047001.2,N
1552794815.9,286046998.7,N
1552794835.7,286046998.9,N
1552794855.6,286046998.6,N
1552794875.4,286046999.5,N
1552794895.2,286046998.8,N
1552794915.1,286046999.4,N
1552794916.0,286046999.4,N
1552794935.8,286046996.7,N
1552794955.7,286046997.0,N
1552794975.5,286046996.6,N
1552794995.3,286046999.4,N
1552795015.2,286046998.6,N
1552795035.0,286046998.4,N
1552795035.9,286046998.4,N
1552795055.7,286046998.9,N
1552795075.6,286047000.5,N
1552795095.4,286047001.2,N
1552795115.3,286046996.6,N
1552795135.1,286046999.3,N
1552795136.0,286046999.3,N
1552795155.8,286046999.4,N
1552795175.7,286046997.8,N
1552795195.5,286046997.0,N
